Flag for Germany Weather past 2 weeks in Lübbecke, North Rhine-Westphalia, Germany

Now
72 °F

Mild.


Feels Like: 77 °F
Forecast: 73 / 87 °F
Wind: 1 mph from Southeast

Location: Bueckeburg

Current Time: Jul 2, 2015 at 7:43:00 AM

Latest Report: Jul 2, 2015 at 6:20 AM


Visibility: N/A

Pressure: 30.12 "Hg

Humidity: 50%

Dew point: 52 °F

Location of LübbeckeLocation

Historic Weather in Lübbecke — Graph

°F

Lübbecke temperature yesterday

Maximum temperature yesterday: 84 °F (at 4:20 PM)
Minimum temperature yesterday: 55 °F (at 4:20 AM)
Average temperature yesterday: 72 °F

Past Weeks' High & Low Weather Summary

 TemperatureHumidityPressure
High84 °F (Jul 1, 4:20 PM)100% (Jun 18, 1:20 AM)30.27 "Hg (Jun 18, 1:20 AM)
Low45 °F (Jun 17, 6:20 AM)36% (Jun 30, 3:20 PM)29.65 "Hg (Jun 22, 9:20 PM)
Average61 °F71%30.04 "Hg
* Reported Jun 17 6:20 AM — Jul 2 6:20 AM, Lübbecke, Weather by CustomWeather, © 2015

Note: Actual official high and low records may vary slightly from our data, if they occured in-between our weather recording intervals... More about our weather records

Advertising

Lübbecke weather history for previous 24 hours

 ConditionsComfort  
Time TempWeatherWind HumidityBarometerVisibility
6:20 AM
Thu, Jul 2
72 °FMild.1 mph50%30.12 "HgN/A
5:20 AM72 °FMild.5 mph47%30.12 "HgN/A
4:20 AM72 °FPassing clouds.3 mph47%30.12 "HgN/A
3:20 AM73 °FMild.5 mph44%30.12 "HgN/A
2:20 AM75 °FPassing clouds.6 mph41%30.12 "HgN/A
1:20 AM73 °FPassing clouds.2 mph47%30.12 "HgN/A
12:20 AM73 °FPassing clouds.5 mph47%30.12 "HgN/A
11:20 PM
Wed, Jul 1
73 °FPassing clouds.5 mph47%30.12 "HgN/A
10:20 PM75 °FPassing clouds.10 mph47%30.09 "HgN/A
9:20 PM77 °FPassing clouds.10 mph44%30.09 "HgN/A
8:20 PM81 °FPassing clouds.9 mph42%30.09 "HgN/A
7:20 PM82 °FPassing clouds.9 mph42%30.09 "HgN/A
6:20 PM82 °FPassing clouds.12 mph42%30.09 "HgN/A
5:20 PM84 °FPassing clouds.9 mph43%30.12 "HgN/A
4:20 PM84 °FScattered clouds.9 mph40%30.12 "HgN/A
3:20 PM82 °FPassing clouds.9 mph42%30.12 "HgN/A
2:20 PM82 °FPassing clouds.9 mph42%30.15 "HgN/A
1:20 PM81 °FPassing clouds.9 mph45%30.15 "HgN/A
12:20 PM81 °FPassing clouds.10 mph39%30.15 "HgN/A
11:20 AM79 °FPassing clouds.9 mph42%30.15 "HgN/A
10:20 AM77 °FPassing clouds.9 mph42%30.18 "HgN/A
9:20 AM73 °FPassing clouds.10 mph47%30.18 "HgN/A
8:20 AM70 °FPassing clouds.2 mph57%30.18 "HgN/A
7:20 AM63 °FPassing clouds.2 mph73%30.15 "HgN/A
Weather by CustomWeather, © 2015

See weather overviewHow to use our weather pages